This demonstration page uses our WeatherBlox Daily Observations layout. Learn more.

Left ArrowRight Arrow

40.92945, -100.16068

Hourly Observations for June 1, 2016

Temp ( °F °C ) Dew Point ( °F °C ) Humidity (%) Winds ( mph kmh ) Pressure ( in mb ) Visibility ( mi km ) Precip ( " mm )
12:15 am 00:15 Partly Cloudy 57 14 53 11.5 85 85 Calm 30.00 1016 10 16 N/A
12:35 am 00:35 Clear 58 14.4 51 10.7 79 79 Calm 30.00 1016 10 16 N/A
12:55 am 00:55 Clear 57 14.1 51 10.5 79 79 N 13 20 30.00 1016 10 16 N/A
1:15 am 01:15 Clear 56 13.1 49 9.5 79 79 N 7 11 30.06 1018 10 16 N/A
1:35 am 01:35 Clear 55 12.6 48 9 79 79 NNE 7 11 30.06 1018 10 16 N/A
1:55 am 01:55 Clear 54 12.2 48 8.9 80 80 N 3 6 30.06 1018 10 16 N/A
2:15 am 02:15 Clear 54 12 47 8.6 80 80 NNE 7 11 30.06 1018 10 16 N/A
2:35 am 02:35 Clear 54 12 48 8.7 80 80 Calm 30.06 1018 10 16 N/A
2:55 am 02:55 Clear 51 10.6 47 8.2 85 85 WNW 6 9 30.12 1020 10 16 N/A
3:15 am 03:15 Clear 52 10.9 47 8.5 85 85 WNW 5 7 30.09 1019 10 16 N/A
3:35 am 03:35 Clear 51 10.8 47 8.5 86 86 W 5 7 30.12 1020 10 16 N/A
3:55 am 03:55 Clear 50 10.1 46 7.8 86 86 WNW 6 9 30.09 1019 10 16 N/A
4:15 am 04:15 Clear 50 10 46 8 88 88 WNW 6 9 30.09 1019 10 16 N/A
4:35 am 04:35 Clear 50 9.8 46 8 89 89 WNW 6 9 30.09 1019 10 16 N/A
4:55 am 04:55 Clear 49 9.5 46 7.9 90 90 WNW 6 9 30.09 1019 10 16 N/A
5:15 am 05:15 Clear 50 9.9 47 8.2 89 89 WNW 5 7 30.09 1019 10 16 N/A
5:35 am 05:35 Clear 48 9.1 46 7.7 91 91 WNW 3 6 30.09 1019 10 16 N/A
5:55 am 05:55 Clear 48 9.1 46 7.6 90 90 NW 6 9 30.12 1020 7 11 N/A
6:15 am 06:15 Sunny 49 9.6 46 7.8 89 89 WNW 6 9 30.12 1020 10 16 N/A
6:35 am 06:35 Sunny 49 9.7 46 8 89 89 WNW 6 9 30.12 1020 10 16 N/A
6:55 am 06:55 Sunny 50 10.1 47 8.2 88 88 W 5 7 30.12 1020 10 16 N/A
7:15 am 07:15 Sunny 52 11 48 8.7 86 86 W 5 7 30.09 1019 10 16 N/A
7:35 am 07:35 Sunny 53 11.5 48 8.8 84 84 WNW 6 9 30.09 1019 10 16 N/A
7:55 am 07:55 Sunny 55 12.5 49 9.2 80 80 WNW 7 11 30.09 1019 10 16 N/A
8:15 am 08:15 Sunny 56 13.3 49 9.2 76 76 NW 6 9 30.09 1019 10 16 N/A
8:35 am 08:35 Sunny 57 13.9 49 9.2 74 74 NW 6 9 30.09 1019 10 16 N/A
8:55 am 08:55 Sunny 58 14.5 49 9.2 71 71 NNW 7 11 30.06 1018 10 16 N/A
9:15 am 09:15 Sunny 59 15.2 49 9.4 69 69 NW 6 9 30.06 1018 10 16 N/A
9:35 am 09:35 Sunny 61 15.9 49 9.4 66 66 WNW 6 9 30.06 1018 10 16 N/A
9:55 am 09:55 Sunny 62 16.5 49 9.4 63 63 NNW 6 9 30.09 1019 10 16 N/A
10:15 am 10:15 Sunny 63 17.1 49 9.4 61 61 NNW 6 9 30.09 1019 10 16 N/A
10:35 am 10:35 Sunny 64 17.5 49 9.2 58 58 NNW 8 13 30.03 1017 10 16 N/A
10:55 am 10:55 Sunny 64 18 49 9.6 58 58 N 6 9 30.03 1017 10 16 N/A
11:15 am 11:15 Sunny 65 18.5 51 10.3 59 59 N 8 13 30.03 1017 10 16 N/A
11:35 am 11:35 Sunny 66 19 50 10.2 57 57 NNW 7 11 30.03 1017 10 16 N/A
11:55 am 11:55 Sunny 67 19.5 51 10.7 57 57 NW 9 15 30.03 1017 10 16 N/A
12:15 pm 12:15 Sunny 68 19.8 50 10.2 54 54 NW 7 11 30.03 1017 10 16 N/A
12:35 pm 12:35 Sunny 69 20.3 51 10.3 53 53 N 7 11 30.03 1017 10 16 N/A
12:55 pm 12:55 Sunny 69 20.7 50 10.1 51 51 NW 8 13 30.03 1017 10 16 N/A
1:15 pm 13:15 Sunny 70 21 48 9.1 47 47 N 6 9 29.97 1015 10 16 N/A
1:35 pm 13:35 Sunny 71 21.7 51 10.3 48 48 NNW 3 6 29.97 1015 10 16 N/A
1:55 pm 13:55 Sunny 72 22 51 10.3 48 48 N 6 9 29.97 1015 10 16 N/A
2:15 pm 14:15 Sunny 72 22.1 50 9.9 46 46 WNW 8 13 29.97 1015 10 16 N/A
2:35 pm 14:35 Sunny 73 22.5 49 9.3 43 43 WNW 6 9 29.97 1015 10 16 N/A
2:55 pm 14:55 Sunny 73 22.6 47 8.4 40 40 Calm 29.97 1015 10 16 N/A
3:15 pm 15:15 Sunny 73 22.9 47 8.5 40 40 W 3 6 29.94 1014 10 16 N/A
3:35 pm 15:35 Sunny 73 23 47 8.4 39 39 WNW 5 7 29.94 1014 10 16 N/A
3:55 pm 15:55 Sunny 74 23.4 48 8.9 40 40 W 7 11 29.94 1014 10 16 N/A
4:15 pm 16:15 Sunny 75 23.7 48 9 39 39 WSW 3 6 29.91 1013 10 16 N/A
4:35 pm 16:35 Sunny 74 23.6 48 9.1 40 40 W 6 9 29.94 1014 10 16 N/A
4:55 pm 16:55 Sunny 74 23.6 47 8.6 38 38 SW 5 7 29.94 1014 10 16 N/A
5:15 pm 17:15 Partly Cloudy 75 23.7 48 8.8 39 39 NW 3 6 29.91 1013 10 16 N/A
5:35 pm 17:35 Partly Cloudy 75 24 47 8.6 38 38 Calm 29.91 1013 10 16 N/A
5:55 pm 17:55 Mostly Cloudy 75 23.7 49 9.3 40 40 WSW 6 9 29.91 1013 10 16 N/A
6:15 pm 18:15 Cloudy 73 22.6 51 10.6 47 47 S 6 9 29.94 1014 10 16 N/A
6:35 pm 18:35 Mostly Cloudy 73 23 50 10.1 44 44 Calm 29.94 1014 10 16 N/A
6:55 pm 18:55 Sunny 71 21.4 49 9.5 47 47 W 7 11 29.88 1012 10 16 N/A
7:15 pm 19:15 Sunny 73 22.6 52 10.9 48 48 Calm 29.94 1014 10 16 N/A
7:35 pm 19:35 Mostly Cloudy 73 22.5 52 11.1 49 49 SSE 6 9 29.94 1014 10 16 N/A
7:55 pm 19:55 Partly Cloudy 70 21 52 11 53 53 SE 5 7 29.94 1014 10 16 N/A
8:15 pm 20:15 Sunny 68 20.2 52 11 56 56 S 5 7 29.94 1014 10 16 N/A
8:35 pm 20:35 Sunny 68 20 53 11.4 58 58 S 6 9 29.97 1015 10 16 N/A
8:55 pm 20:55 Sunny 65 18.4 52 11.3 63 63 S 7 11 29.97 1015 10 16 N/A
9:15 pm 21:15 Clear 64 18 52 11 64 64 S 6 9 29.97 1015 10 16 N/A
9:35 pm 21:35 Clear 64 17.6 51 10.8 65 65 S 6 9 29.97 1015 10 16 N/A
9:55 pm 21:55 Clear 63 17 51 10.8 67 67 S 7 11 29.97 1015 10 16 N/A
10:15 pm 22:15 Clear 61 16.3 51 10.8 70 70 S 6 9 30.03 1017 10 16 N/A
10:55 pm 22:55 Clear 61 16.1 52 10.9 71 71 S 9 15 30.03 1017 10 16 N/A
11:35 pm 23:35 Clear 62 16.7 52 10.9 69 69 SSW 8 13 30.03 1017 10 16 N/A
11:55 pm 23:55 Clear 62 16.7 51 10.8 68 68 SSW 8 13 30.03 1017 10 16 N/A

Powered by AerisWeather